ASTRA 1G
1 25071U 97076A   03099.00000000  .00000122  00000-0  10000-3 0  3987
2 25071   0.0122 319.8851 0002995  65.1991 190.9189  1.00273184 19635
INMARSAT 3-F5
1 25153U 98006B   03105.34891302  .00000000  00000-0  10000-3 0  8711
2 25153   0.4534 355.8620 0003036  23.6980 334.1303  1.00273319 19051
HOT BIRD 4
1 25237U 98013A   03099.84635997  .00000087  00000-0  10000-3 0  3344
2 25237   0.0316 347.7932 0006645  69.4486  98.0254  1.00270260 19044
NOAA 15
1 25338U 98030A   03107.48584350  .00000160  00000-0  87565-4 0   824
2 25338  98.5475 128.0621 0011065 143.7622 216.4310 14.24272715256048
RESURS O1-N4
1 25394U 98043A   03107.18706611  .00000069  00000-0  49058-4 0  4965
2 25394  98.6207 184.0229 0000810 340.3193  19.7954 14.23899419247733
TMSAT
1 25396U 98043C   03106.89091619 -.00000043  00000-0  00000+0 0  8404
2 25396  98.6162 182.8415 0002010 352.4411   7.6739 14.23529728247683
TECHSAT 1B
1 25397U 98043D   03105.95069554 +.00000053 +00000-0 +42924-4 0 01672
2 25397 098.6139 180.7317 0001503 023.8222 336.3025 14.22973461247519
ASTRA 2A
1 25462U 98050A   03099.00000000  .00000152  00000-0  00000+0 0  5401
2 25462   0.0385 308.7109 0004824 280.8620 355.4582  1.00272094 16935
EUTELSAT W2
1 25491U 98056A   03105.84269355  .00000000  00000-0  10000-3 0  5989
2 25491   0.0466 135.2279 0068238 294.0685  93.0438  1.00275633 16617
HOT BIRD 5
1 25495U 98057A   03099.85365163  .00000146  00000-0  00000+0 0  5088
2 25495   0.0280  82.8420 0010247 215.0657 232.9622  1.00274308 16526
SEDSAT 1
1 25509U 98061B   03107.20938158  .00000358  00000-0  61652-4 0  8250
2 25509  31.4285 187.6478 0357104  86.2520 277.8832 14.27484555233550
PAN SAT
1 25520U 98064B   03105.65515293 +.00001722 +00000-0 +81703-4 0 06640
2 25520 028.4628 210.2013 0006224 243.3053 116.6888 15.14178894246096
ISS (ZARYA)
1 25544U 98067A   03107.46958186 -.00001490  00000-0 -12708-4 0  9019
2 25544  51.6347 325.2310 0006536  30.7558  50.2198 15.58217812251533
ORSTED
1 25635U 99008B   03106.93816990  .00000386  00000-0  10491-3 0  8817
2 25635  96.4607  79.4845 0145202 146.3694 214.6814 14.44926062218228
SUNSAT
1 25636U 99008C   03105.95485674 +.00000206 +00000-0 +61535-4 0 07153
2 25636 096.4622 077.2762 0149154 156.5372 204.2721 14.42998629217942
UOSAT 12
1 25693U 99021A   03107.53120834  .00000138  00000-0  39705-4 0  8835
2 25693  64.5614 193.3676 0025822 313.0128  46.8811 14.76451860214811
FENGYUN 1C
1 25730U 99025A   03106.56525274  .00000018  00000-0  32744-4 0  8136
2 25730  98.6284 128.8175 0014062 196.7561 163.3148 14.11740578202677
ASTRA 1H
1 25785U 99033A   03099.00000000  .00000123  00000-0  10000-3 0  3783
2 25785   0.0122 319.8851 0002995  65.1991 190.9720  1.00273184 13991
TERRA
1 25994U 99068A   03107.26950758  .00000280  00000-0  72069-4 0  8867
2 25994  98.1903 182.5654 0000861  90.7753 269.3543 14.57134835177073
JAWSAT
1 26061U 00004A   03107.54411154  .00000392  00000-0  14813-3 0  8145
2 26061 100.1950 175.3417 0035895 115.8038 244.6853 14.37898365168862
OPAL
1 26063U 00004C   03107.19759821  .00000085  00000-0  49453-4 0  7646
2 26063 100.2019 172.1985 0037334 124.0573 236.4152 14.35507139168654
ASUSAT
1 26065U 00004E   03107.50180482  .00000102  00000-0  55407-4 0  7820
2 26065 100.1987 172.7207 0037940 124.6385 235.8382 14.35537304168691
GOES 11
1 26352U 00022A   03107.14986080 -.00000036  00000-0  10000-3 0  1153
2 26352   0.2838  99.0279 0002448 240.3240 165.4196  1.00272337 10817
EUTELSAT W4
1 26369U 00028A   03105.78126854  .00000150  00000-0  00000+0 0  3759
2 26369   0.0567  31.2297 0002759 330.6543 158.9819  1.00272063 10617
FENGYUN 2B
1 26382U 00032A   03107.53746950 -.00000336  00000-0  00000+0 0  8313
2 26382   0.4284 295.2923 0001528 261.2372 306.4660  1.00282906 10297
EUTELSAT W1
1 26487U 00052A   03105.90480097  .00000064  00000-0  10000-3 0  3842
2 26487   0.0284 147.6292 0003964 235.6978 156.0143  1.00274400  9586
ASTRA 2B
1 26494U 00054A   03099.00000000  .00000152  00000-0  00000+0 0  2614
2 26494   0.0178 354.5658 0005000 302.8402 287.5550  1.00276704  9416
NOAA 16
1 26536U 00055A   03107.26589219  .00000506  00000-0  30100-3 0  2930
2 26536  98.9102  55.1521 0011148 139.3330 220.8685 14.11939913132298
SAUDISAT 1A
1 26545U 00057A   03105.66568413 +.00000740 +00000-0 +11717-3 0 04392
2 26545 064.5584 219.4885 0047796 229.8522 129.8381 14.79130649137520
UNISAT
1 26547U 00057C   03107.17544560  .00001309  00000-0  18744-3 0  4590
2 26547  64.5576 216.8439 0054945 230.9563 128.6660 14.79993418137710
TIUNGSAT 1
1 26548U 00057D   03107.28829745  .00000970  00000-0  14044-3 0  4428
2 26548  64.5575 206.7420 0040890 230.0407 129.7116 14.81467719137913
SAUDISAT 1B
1 26549U 00057E   03105.80986948  .00000844  00000-0  13372-3 0  7307
2 26549  64.5525 223.4497 0052386 229.3097 130.3446 14.78062576137459
AMSAT OSCAR 40
1 26609U 00072B   03101.06918723 -.00000337  00000-0  10000-3 0  3243
2 26609   8.4684  54.7135 7954739 162.8251 262.9704  1.25597299 11235
GOES 12
1 26871U 01031A   03107.26988992 -.00000254  00000-0  10000-3 0  9225
2 26871   0.1848 274.6528 0000708  89.3514 221.1378  1.00348360  6416
PCSAT
1 26931U 01043C   03106.91157124  .00000115  00000-0  77904-4 0  4510
2 26931  67.0469 107.9873 0005870 273.7427  86.3003 14.29147791 80544
SAPPHIRE
1 26932U 01043D   03106.53277848  .00000019  00000-0  40088-4 0  4454
2 26932  67.0539 108.6540 0003983 262.4092  97.6556 14.29317053 80513
ENVISAT
1 27386U 02009A   03107.52916019  .00000126  00000-0  62790-4 0    34
2 27386  98.5453 175.2569 0000943  88.8946 271.2346 14.32246235 59041
IDEFIX/ARIANE 42P
1 27422U 02021B   03106.84835038  .00000142  00000-0  75033-4 0  2814
2 27422  98.6869 185.7591 0012275 347.3823  12.7048 14.28002230 49634
FENGYUN 1D
1 27431U 02024B   03107.17780977  .00000091  00000-0  77041-4 0  2628
2 27431  98.7560 154.5857 0014543 324.1485  35.8840 14.09184621 47480
NOAA 17
1 27453U 02032A   03107.49145511  .00000221  00000-0  11699-3 0  3773
2 27453  98.7454 178.3674 0011867 184.4426 175.6649 14.23330343 42200
HOT BIRD 6
1 27499U 02038A   03104.14052927  .00000000  00000-0  10000-3 0   739
2 27499   0.0313 303.0505 0012771 138.1476 184.1937  1.00273600  2378
RUBIN 2
1 27605U 02058A   03106.26309295  .00000354  00000-0  78061-4 0  1092
2 27605  64.5516  25.0702 0034855  87.2786 273.2300 14.71461428 17157
